Regional Weather Roundup
Issued by NWS

Home | Current Version | Previous Version | Graphics & Text | Print | Product List | Glossary On
Versions: 1 2 3 4 5 6 7 8 9 10 11 12 13 14 15 16 17 18 19 20 21 22 23 24 25 26 27 28 29 30 31 32 33 34 35 36 37 38 39 40 41 42 43 44 45 46 47 48 49 50
000
ASUS43 KDMX 211106
RWRIA

WEATHER ROUNDUP FOR IOWA
NATIONAL WEATHER SERVICE DES MOINES IA
500 AM CST TUE FEB 21 2017

NOTE: "FAIR" INDICATES FEW OR NO CLOUDS BELOW 12,000 FEET WITH NO
SIGNIFICANT WEATHER AND/OR OBSTRUCTIONS TO VISIBILITY.

* - THESE STATIONS ARE NOT NWS STATIONS...THUS NOT UNDER NWS
QUALITY CONTROL.  THEY ALSO DO NOT REPORT WEATHER SUCH
AS PRECIPITATION OR FOG.

IAZ001>003-012>014-020>022-031>034-043>046-211200-
   NORTHWEST IOWA

CITY           SKY/WX    TMP DP  RH WIND       PRES   REMARKS
CARROLL *      CLEAR     34  32  93 S5        29.93S WCI  30
CHEROKEE *     FOG       29  29 100 CALM      29.92S VSB 3/4
DENISON *      FOG       28  30 100 CALM      29.93S VSB 1/4
LE MARS *      CLEAR     32  32 100 S5        29.93F WCI  27
SHELDON *      CLEAR     36  36 100 S6        29.90R WCI  31
SIOUX CITY     CLEAR     31  29  92 E5        29.93S FOG     WCI  26
SPENCER        CLEAR     34  33  96 SW7       29.92R WCI  28
STORM LAKE *   CLEAR     37  36  93 SW9       29.92S FOG     WCI  31
$$

IAZ055>058-069>071-079>083-090>094-211200-
   SOUTHWEST IOWA

CITY           SKY/WX    TMP DP  RH WIND       PRES   REMARKS
ATLANTIC *     FOG       32  32 100 CALM      29.96R VSB<1/4
CLARINDA *     FOG       32  32 100 CALM      29.99S VSB 1/4
COUNCIL BLFS * FOG       36  36 100 S6        29.96R VSB 3/4 WCI  31
CRESTON *      CLEAR     41  39  93 NE3       29.97S
HARLAN  *      FOG       30  30 100 CALM      29.99R VSB<1/4
LAMONI         PTCLDY    43  41  93 N8        29.96S
RED OAK *      FOG       32  32 100 CALM      29.97S VSB 1/4
SHENANDOAH *   FOG       32  32 100 CALM      29.98S VSB 3/4
$$

IAZ047>049-059>061-072>074-084-211200-
   CENTRAL IOWA

CITY           SKY/WX    TMP DP  RH WIND       PRES   REMARKS
AMES           CLEAR     32  32 100 CALM      29.95F FOG
ANKENY *       FOG       36  34  93 S3        29.97F VSB<1/4
BOONE *        CLEAR     39  39 100 W3        29.93F FOG
CHARITON *     CLOUDY    43  41  93 N7        29.96F
DES MOINES     CLEAR     41  39  93 S5        29.96S
GRINNELL*      PTCLDY    39  38  97 NW5       29.98R
KNOXVILLE *    MOCLDY    43  41  93 NW3       29.96S FOG
MARSHALLTOWN   FOG       36  36 100 CALM      29.95S VSB 1/4
NEWTON *       CLOUDY    43  41  93 CALM      29.95F FOG
PELLA *        PTCLDY    41  40  97 NW5       29.98S FOG
PERRY *          N/A     36  35  99 SW5       29.96R WCI  32
$$

IAZ004>006-015-016-023>025-035-036-211200-
   NORTH CENTRAL IOWA

CITY           SKY/WX    TMP DP  RH WIND       PRES   REMARKS
ALGONA *       PTCLDY    34  34 100 S7        29.91S WCI  28
CLARION *      CLEAR     34  34 100 S5        29.93S FOG     WCI  30
ESTHERVILLE    CLEAR     32  32 100 SW7       29.90R WCI  26
FORT DODGE *   MOCLDY    28  27  93 SE3       29.93S VSB 3/4
MASON CITY     FOG       34  33  96 SW5       29.93F VSB 3/4 WCI  30
FOREST CITY *  FOG       30  30 100 CALM      29.91S VSB 1/4
IOWA FALLS *     N/A     36  35  96 CALM      29.95S FOG
$$

IAZ007>011-017>019-026>030-037>042-050>054-066-211200-
   NORTHEAST IOWA

CITY           SKY/WX    TMP DP  RH WIND       PRES   REMARKS
CEDAR RAPIDS   PTCLDY    39  39 100 NW5       29.94R
CHARLES CITY * FOG       36  36 100 W3        29.93S VSB 1/4
CLINTON *      CLOUDY    49  47  93 NW8       29.93R
DECORAH *      CLEAR     37  37 100 W5        29.92R FOG     WCI  34
DUBUQUE        PTCLDY    44  42  93 NW9       29.94R
MONTICELLO *   CLOUDY    41  39  93 CALM      29.94S
OELWEIN *      FOG       34  34 100 CALM      29.94S VSB<1/4
WATERLOO       FOG       33  32  96 SW3       29.95S VSB 1/4
$$

IAZ064-065-067-068-078-211200-
   EAST CENTRAL IOWA

CITY           SKY/WX    TMP DP  RH WIND       PRES   REMARKS
DAVENPORT      CLOUDY    49  46  90 NW8       29.95R
IOWA CITY      MOCLDY    49  43  80 N7        29.96R
MUSCATINE *    CLOUDY    50  46  87 NW7       29.96R
QUAD CITIES    CLOUDY    54  49  83 NW8       29.93R
$$

IAZ062-063-075>077-085>089-095>099-211200-
   SOUTHEAST IOWA

CITY           SKY/WX    TMP DP  RH WIND       PRES   REMARKS
BURLINGTON     CLOUDY    56  56 100 NW8       29.92R FOG
FAIRFIELD *    CLOUDY    46  43  87 NW6       29.96R
KEOKUK *       MOCLDY    55  55 100 NW8       29.93R
OTTUMWA        MOCLDY    45  44  97 N7        29.95F
WASHINGTON *   CLOUDY    46  45  93 NW8G15    29.97R
$$

ABBREVIATIONS USED IN REMARKS
   TC - TEMPERATURES IN CELSIUS
  WCI - WIND CHILL INDEX
   HX - HEAT INDEX
  VSB - VISIBILITY
$$





USA.gov is the U.S. government's official web portal to all federal, state and local government web resources and services.